Time,TemperatureF,DewpointF,PressureIn,WindDirection,WindDirectionDegrees,WindSpeedMPH,WindSpeedGustMPH,Humidity,HourlyPrecipIn,Conditions,Clouds,dailyrainin,SoftwareType,DateUTC
2013-04-20 00:02:00,37.0,-99.9,29.99,WNW,293,8.0,16.0,-999,0.00,,,0.03,,2013-04-20 05:02:00,
2013-04-20 00:12:00,37.0,-99.9,29.99,WNW,293,8.0,16.0,-999,0.00,,,0.03,,2013-04-20 05:12:00,
2013-04-20 00:22:00,37.0,-99.9,30.00,West,270,3.0,14.0,-999,0.00,,,0.03,,2013-04-20 05:22:00,
2013-04-20 00:32:00,36.0,-99.9,30.00,WSW,248,0.0,14.0,-999,0.00,,,0.03,,2013-04-20 05:32:00,
2013-04-20 00:43:00,36.0,-99.9,30.00,WSW,248,0.0,14.0,-999,0.00,,,0.03,,2013-04-20 05:43:00,
2013-04-20 00:52:00,36.0,-99.9,30.01,West,270,6.0,14.0,-999,0.00,,,0.03,,2013-04-20 05:52:00,
2013-04-20 01:02:00,35.0,-99.9,30.01,West,270,8.0,15.0,-999,0.00,,,0.03,,2013-04-20 06:02:00,
2013-04-20 01:12:00,35.0,-99.9,30.01,West,270,8.0,15.0,-999,0.00,,,0.03,,2013-04-20 06:12:00,
2013-04-20 01:22:00,35.0,-99.9,30.01,West,270,9.0,14.0,-999,0.00,,,0.03,,2013-04-20 06:22:00,
2013-04-20 01:32:00,35.0,-99.9,30.02,West,270,9.0,12.0,-999,0.00,,,0.03,,2013-04-20 06:32:00,
2013-04-20 01:42:00,35.0,-99.9,30.02,West,270,9.0,12.0,-999,0.00,,,0.03,,2013-04-20 06:42:00,
2013-04-20 01:52:00,34.0,-99.9,30.02,West,270,7.0,13.0,-999,0.00,,,0.03,,2013-04-20 06:52:00,
2013-04-20 02:02:00,34.0,-99.9,30.02,West,270,6.0,12.0,-999,0.00,,,0.03,,2013-04-20 07:02:00,
2013-04-20 02:11:00,34.0,-99.9,30.02,West,270,6.0,12.0,-999,0.00,,,0.03,,2013-04-20 07:11:00,
2013-04-20 02:22:00,34.0,-99.9,30.03,West,270,8.0,9.0,-999,0.00,,,0.03,,2013-04-20 07:22:00,
2013-04-20 02:32:00,33.0,-99.9,30.03,West,270,7.0,10.0,-999,0.00,,,0.03,,2013-04-20 07:32:00,
2013-04-20 02:42:00,33.0,-99.9,30.03,West,270,6.0,10.0,-999,0.00,,,0.03,,2013-04-20 07:42:00,
2013-04-20 02:52:00,33.0,-99.9,30.03,West,270,6.0,10.0,-999,0.00,,,0.03,,2013-04-20 07:52:00,
2013-04-20 03:02:00,33.0,-99.9,30.04,West,270,6.0,9.0,-999,0.00,,,0.03,,2013-04-20 08:02:00,
2013-04-20 03:11:00,33.0,-99.9,30.04,West,270,6.0,9.0,-999,0.00,,,0.03,,2013-04-20 08:11:00,
2013-04-20 03:22:00,33.0,-99.9,30.04,West,270,6.0,9.0,-999,0.00,,,0.03,,2013-04-20 08:22:00,
2013-04-20 03:32:00,33.0,-99.9,30.04,West,270,8.0,9.0,-999,0.00,,,0.03,,2013-04-20 08:32:00,
2013-04-20 03:42:00,33.0,-99.9,30.04,West,270,8.0,9.0,-999,0.00,,,0.03,,2013-04-20 08:42:00,
2013-04-20 03:52:00,33.0,-99.9,30.05,West,270,6.0,9.0,-999,0.00,,,0.03,,2013-04-20 08:52:00,
2013-04-20 04:02:00,32.0,-99.9,30.06,West,270,6.0,9.0,-999,0.00,,,0.03,,2013-04-20 09:02:00,
2013-04-20 04:12:00,32.0,-99.9,30.06,West,270,6.0,9.0,-999,0.00,,,0.03,,2013-04-20 09:12:00,
2013-04-20 04:22:00,32.0,-99.9,30.06,West,270,5.0,9.0,-999,0.00,,,0.03,,2013-04-20 09:22:00,
2013-04-20 04:33:00,32.0,-99.9,30.07,West,270,6.0,9.0,-999,0.00,,,0.03,,2013-04-20 09:33:00,
2013-04-20 04:43:00,32.0,-99.9,30.07,West,270,6.0,8.0,-999,0.00,,,0.03,,2013-04-20 09:43:00,
2013-04-20 04:53:00,32.0,-99.9,30.07,West,270,6.0,8.0,-999,0.00,,,0.03,,2013-04-20 09:53:00,
2013-04-20 05:03:00,32.0,-99.9,30.07,West,270,6.0,9.0,-999,0.00,,,0.03,,2013-04-20 10:03:00,
2013-04-20 05:13:00,32.0,-99.9,30.07,West,270,6.0,9.0,-999,0.00,,,0.03,,2013-04-20 10:13:00,
2013-04-20 05:23:00,32.0,-99.9,30.09,West,270,6.0,10.0,-999,0.00,,,0.03,,2013-04-20 10:23:00,
2013-04-20 05:33:00,31.0,-99.9,30.09,West,270,3.0,8.0,-999,0.00,,,0.03,,2013-04-20 10:33:00,
2013-04-20 05:42:00,31.0,-99.9,30.10,West,270,2.0,6.0,-999,0.00,,,0.03,,2013-04-20 10:42:00,
2013-04-20 05:53:00,31.0,-99.9,30.10,West,270,2.0,6.0,-999,0.00,,,0.03,,2013-04-20 10:53:00,
2013-04-20 06:03:00,31.0,-99.9,30.11,SSW,203,0.0,5.0,-999,0.00,,,0.03,,2013-04-20 11:03:00,
2013-04-20 06:12:00,30.0,-99.9,30.12,SW,225,0.0,3.0,-999,0.00,,,0.03,,2013-04-20 11:12:00,
2013-04-20 06:23:00,30.0,-99.9,30.12,SW,225,0.0,3.0,-999,0.00,,,0.03,,2013-04-20 11:23:00,
2013-04-20 06:32:00,32.0,-99.9,30.13,West,270,6.0,10.0,-999,0.00,,,0.03,,2013-04-20 11:32:00,
2013-04-20 06:42:00,32.0,-99.9,30.13,West,270,6.0,10.0,-999,0.00,,,0.03,,2013-04-20 11:42:00,
2013-04-20 06:53:00,32.0,-99.9,30.13,West,270,5.0,9.0,-999,0.00,,,0.03,,2013-04-20 11:53:00,
2013-04-20 07:02:00,32.0,-99.9,30.13,West,270,3.0,8.0,-999,0.00,,,0.03,,2013-04-20 12:02:00,
2013-04-20 07:11:00,32.0,-99.9,30.13,West,270,3.0,8.0,-999,0.00,,,0.03,,2013-04-20 12:11:00,
2013-04-20 07:23:00,33.0,-99.9,30.14,West,270,7.0,9.0,-999,0.00,,,0.03,,2013-04-20 12:23:00,
2013-04-20 07:32:00,33.0,-99.9,30.15,West,270,7.0,10.0,-999,0.00,,,0.03,,2013-04-20 12:32:00,
2013-04-20 07:42:00,33.0,-99.9,30.15,West,270,7.0,10.0,-999,0.00,,,0.03,,2013-04-20 12:42:00,
2013-04-20 07:52:00,34.0,-99.9,30.16,West,270,5.0,10.0,-999,0.00,,,0.03,,2013-04-20 12:52:00,
2013-04-20 08:02:00,35.0,-99.9,30.16,WNW,293,5.0,10.0,-999,0.00,,,0.03,,2013-04-20 13:02:00,
2013-04-20 08:11:00,35.0,-99.9,30.17,WNW,293,7.0,10.0,-999,0.00,,,0.03,,2013-04-20 13:11:00,
2013-04-20 08:22:00,35.0,-99.9,30.17,WNW,293,7.0,10.0,-999,0.00,,,0.03,,2013-04-20 13:22:00,
2013-04-20 08:32:00,36.0,-99.9,30.18,WNW,293,5.0,10.0,-999,0.00,,,0.03,,2013-04-20 13:32:00,
2013-04-20 08:42:00,37.0,-99.9,30.19,West,270,3.0,12.0,-999,0.00,,,0.03,,2013-04-20 13:42:00,
2013-04-20 08:52:00,37.0,-99.9,30.19,West,270,3.0,12.0,-999,0.00,,,0.03,,2013-04-20 13:52:00,
2013-04-20 09:02:00,37.0,-99.9,30.20,NNW,338,5.0,12.0,-999,0.00,,,0.03,,2013-04-20 14:02:00,
2013-04-20 09:11:00,38.0,-99.9,30.21,NNW,338,6.0,10.0,-999,0.00,,,0.03,,2013-04-20 14:11:00,
2013-04-20 09:22:00,38.0,-99.9,30.21,NNW,338,6.0,10.0,-999,0.00,,,0.03,,2013-04-20 14:22:00,
2013-04-20 09:32:00,39.0,-99.9,30.22,NNW,338,2.0,9.0,-999,0.00,,,0.03,,2013-04-20 14:32:00,
2013-04-20 09:42:00,39.0,-99.9,30.22,NNW,338,2.0,9.0,-999,0.00,,,0.03,,2013-04-20 14:42:00,
2013-04-20 09:52:00,39.0,-99.9,30.22,West,270,7.0,10.0,-999,0.00,,,0.03,,2013-04-20 14:52:00,
2013-04-20 10:02:00,40.0,-99.9,30.23,NNW,338,6.0,12.0,-999,0.00,,,0.03,,2013-04-20 15:02:00,
2013-04-20 10:12:00,40.0,-99.9,30.23,NNW,338,6.0,12.0,-999,0.00,,,0.03,,2013-04-20 15:12:00,
2013-04-20 10:22:00,41.0,-99.9,30.24,NW,315,6.0,9.0,-999,0.00,,,0.03,,2013-04-20 15:22:00,
2013-04-20 10:34:00,42.0,-99.9,30.25,West,270,5.0,14.0,-999,0.00,,,0.03,,2013-04-20 15:34:00,
2013-04-20 10:43:00,43.0,-99.9,30.25,West,270,10.0,15.0,-999,0.00,,,0.03,,2013-04-20 15:43:00,
2013-04-20 10:53:00,43.0,-99.9,30.25,West,270,10.0,15.0,-999,0.00,,,0.03,,2013-04-20 15:53:00,
2013-04-20 11:03:00,43.0,-99.9,30.26,NW,315,2.0,12.0,-999,0.00,,,0.03,,2013-04-20 16:03:00,
2013-04-20 11:12:00,44.0,-99.9,30.26,North,0,5.0,12.0,-999,0.00,,,0.03,,2013-04-20 16:12:00,
2013-04-20 11:23:00,44.0,-99.9,30.26,North,0,5.0,12.0,-999,0.00,,,0.03,,2013-04-20 16:23:00,
2013-04-20 11:33:00,44.0,-99.9,30.26,NNW,338,2.0,9.0,-999,0.00,,,0.03,,2013-04-20 16:33:00,
2013-04-20 11:42:00,45.0,-99.9,30.27,West,270,8.0,10.0,-999,0.00,,,0.03,,2013-04-20 16:42:00,
2013-04-20 11:53:00,45.0,-99.9,30.27,West,270,8.0,10.0,-999,0.00,,,0.03,,2013-04-20 16:53:00,
2013-04-20 12:03:00,46.0,-99.9,30.27,SW,225,0.0,10.0,-999,0.00,,,0.03,,2013-04-20 17:03:00,
2013-04-20 12:12:00,47.0,-99.9,30.27,North,0,3.0,10.0,-999,0.00,,,0.03,,2013-04-20 17:12:00,
2013-04-20 12:23:00,47.0,-99.9,30.27,North,0,3.0,10.0,-999,0.00,,,0.03,,2013-04-20 17:23:00,
2013-04-20 12:33:00,45.0,-99.9,30.27,West,270,1.0,9.0,-999,0.00,,,0.03,,2013-04-20 17:33:00,
2013-04-20 12:42:00,45.0,-99.9,30.27,West,270,1.0,9.0,-999,0.00,,,0.03,,2013-04-20 17:42:00,
2013-04-20 12:52:00,47.0,-99.9,30.27,NNW,338,1.0,9.0,-999,0.00,,,0.03,,2013-04-20 17:52:00,
2013-04-20 13:02:00,43.0,-99.9,30.27,West,270,6.0,9.0,-999,0.00,,,0.03,,2013-04-20 18:02:00,
2013-04-20 13:13:00,46.0,-99.9,30.28,West,270,2.0,8.0,-999,0.00,,,0.03,,2013-04-20 18:13:00,
2013-04-20 13:22:00,46.0,-99.9,30.28,West,270,2.0,8.0,-999,0.00,,,0.03,,2013-04-20 18:22:00,
2013-04-20 13:32:00,47.0,-99.9,30.28,SSW,203,3.0,9.0,-999,0.00,,,0.03,,2013-04-20 18:32:00,
2013-04-20 13:42:00,47.0,-99.9,30.28,SSW,203,3.0,9.0,-999,0.00,,,0.03,,2013-04-20 18:42:00,
2013-04-20 13:53:00,50.0,-99.9,30.28,West,270,5.0,12.0,-999,0.00,,,0.03,,2013-04-20 18:53:00,
2013-04-20 14:02:00,50.0,-99.9,30.28,NW,315,5.0,8.0,-999,0.00,,,0.03,,2013-04-20 19:02:00,
2013-04-20 14:11:00,50.0,-99.9,30.28,West,270,6.0,15.0,-999,0.00,,,0.03,,2013-04-20 19:11:00,
2013-04-20 14:22:00,50.0,-99.9,30.28,West,270,6.0,15.0,-999,0.00,,,0.03,,2013-04-20 19:22:00,
2013-04-20 14:32:00,51.0,-99.9,30.28,WSW,248,8.0,14.0,-999,0.00,,,0.03,,2013-04-20 19:32:00,
2013-04-20 14:42:00,51.0,-99.9,30.29,WSW,248,6.0,13.0,-999,0.00,,,0.03,,2013-04-20 19:42:00,
2013-04-20 14:52:00,51.0,-99.9,30.29,WSW,248,6.0,13.0,-999,0.00,,,0.03,,2013-04-20 19:52:00,
2013-04-20 15:02:00,57.0,-99.9,30.28,NNE,23,0.0,9.0,-999,0.00,,,0.03,,2013-04-20 20:02:00,
2013-04-20 15:12:00,57.0,-99.9,30.29,North,0,3.0,7.0,-999,0.00,,,0.03,,2013-04-20 20:12:00,
2013-04-20 15:22:00,57.0,-99.9,30.29,North,0,3.0,7.0,-999,0.00,,,0.03,,2013-04-20 20:22:00,
2013-04-20 15:32:00,54.0,-99.9,30.29,North,0,1.0,9.0,-999,0.00,,,0.03,,2013-04-20 20:32:00,
2013-04-20 15:42:00,54.0,-99.9,30.29,North,0,1.0,9.0,-999,0.00,,,0.03,,2013-04-20 20:42:00,
2013-04-20 15:52:00,52.0,-99.9,30.29,West,270,1.0,9.0,-999,0.00,,,0.03,,2013-04-20 20:52:00,
2013-04-20 16:02:00,48.0,-99.9,30.29,North,0,5.0,8.0,-999,0.00,,,0.03,,2013-04-20 21:02:00,
2013-04-20 16:12:00,48.0,-99.9,30.29,North,0,7.0,9.0,-999,0.00,,,0.03,,2013-04-20 21:12:00,
2013-04-20 16:22:00,48.0,-99.9,30.29,North,0,7.0,9.0,-999,0.00,,,0.03,,2013-04-20 21:22:00,
2013-04-20 16:33:00,58.0,-99.9,30.29,North,0,1.0,5.0,-999,0.00,,,0.03,,2013-04-20 21:33:00,
2013-04-20 16:43:00,58.0,-99.9,30.29,North,0,1.0,5.0,-999,0.00,,,0.03,,2013-04-20 21:43:00,
2013-04-20 16:53:00,49.0,-99.9,30.29,NNE,23,0.0,7.0,-999,0.00,,,0.03,,2013-04-20 21:53:00,
2013-04-20 17:03:00,56.0,-99.9,30.29,North,0,6.0,9.0,-999,0.00,,,0.03,,2013-04-20 22:03:00,
2013-04-20 17:13:00,48.0,-99.9,30.29,NNW,338,0.0,6.0,-999,0.00,,,0.03,,2013-04-20 22:13:00,
2013-04-20 17:23:00,48.0,-99.9,30.29,NNW,338,0.0,6.0,-999,0.00,,,0.03,,2013-04-20 22:23:00,
2013-04-20 17:33:00,47.0,-99.9,30.29,NNE,23,0.0,6.0,-999,0.00,,,0.02,,2013-04-20 22:33:00,
2013-04-20 17:42:00,47.0,-99.9,30.29,NNE,23,0.0,6.0,-999,0.00,,,0.02,,2013-04-20 22:42:00,
2013-04-20 17:53:00,52.0,-99.9,30.29,NW,315,1.0,6.0,-999,0.00,,,0.02,,2013-04-20 22:53:00,
2013-04-20 18:02:00,55.0,-99.9,30.29,North,0,0.0,9.0,-999,0.00,,,0.02,,2013-04-20 23:02:00,
2013-04-20 18:12:00,58.0,-99.9,30.29,NNE,23,6.0,9.0,-999,0.00,,,0.02,,2013-04-20 23:12:00,
2013-04-20 18:22:00,58.0,-99.9,30.29,NNE,23,6.0,9.0,-999,0.00,,,0.02,,2013-04-20 23:22:00,
2013-04-20 18:32:00,59.0,-99.9,30.29,NNE,23,6.0,13.0,-999,0.00,,,0.02,,2013-04-20 23:32:00,
2013-04-20 18:42:00,59.0,-99.9,30.29,NNE,23,6.0,13.0,-999,0.00,,,0.02,,2013-04-20 23:42:00,
2013-04-20 18:53:00,57.0,-99.9,30.29,ENE,68,7.0,12.0,-999,0.00,,,0.02,,2013-04-20 23:53:00,
2013-04-20 19:01:00,51.0,-99.9,30.30,North,0,1.0,9.0,-999,0.00,,,0.02,,2013-04-21 00:01:00,
2013-04-20 19:12:00,51.0,-99.9,30.30,North,0,1.0,9.0,-999,0.00,,,0.02,,2013-04-21 00:12:00,
2013-04-20 19:22:00,48.0,-99.9,30.30,NNE,23,5.0,8.0,-999,0.00,,,0.02,,2013-04-21 00:22:00,
2013-04-20 19:32:00,46.0,-99.9,30.31,NE,45,7.0,12.0,-999,0.00,,,0.01,,2013-04-21 00:32:00,
2013-04-20 19:42:00,46.0,-99.9,30.31,NE,45,7.0,12.0,-999,0.00,,,0.01,,2013-04-21 00:42:00,
2013-04-20 19:52:00,43.0,-99.9,30.32,NE,45,5.0,7.0,-999,0.00,,,0.01,,2013-04-21 00:52:00,
2013-04-20 20:01:00,41.0,-99.9,30.33,NE,45,3.0,7.0,-999,0.00,,,0.01,,2013-04-21 01:01:00,
2013-04-20 20:12:00,41.0,-99.9,30.33,NE,45,3.0,7.0,-999,0.00,,,0.01,,2013-04-21 01:12:00,
2013-04-20 20:22:00,41.0,-99.9,30.34,NNE,23,3.0,7.0,-999,0.00,,,0.01,,2013-04-21 01:22:00,
2013-04-20 20:32:00,40.0,-99.9,30.34,NNE,23,2.0,7.0,-999,0.00,,,0.01,,2013-04-21 01:32:00,
2013-04-20 20:42:00,40.0,-99.9,30.34,NNE,23,2.0,7.0,-999,0.00,,,0.01,,2013-04-21 01:42:00,
2013-04-20 20:52:00,39.0,-99.9,30.35,NE,45,3.0,6.0,-999,0.00,,,0.00,,2013-04-21 01:52:00,
2013-04-20 21:02:00,39.0,-99.9,30.36,NE,45,5.0,6.0,-999,0.00,,,0.00,,2013-04-21 02:02:00,
2013-04-20 21:11:00,39.0,-99.9,30.36,NE,45,5.0,6.0,-999,0.00,,,0.00,,2013-04-21 02:11:00,
2013-04-20 21:22:00,40.0,-99.9,30.37,ENE,68,6.0,7.0,-999,0.00,,,0.00,,2013-04-21 02:22:00,
2013-04-20 21:32:00,39.0,-99.9,30.37,East,90,5.0,6.0,-999,0.00,,,0.00,,2013-04-21 02:32:00,
2013-04-20 21:42:00,39.0,-99.9,30.37,East,90,5.0,6.0,-999,0.00,,,0.00,,2013-04-21 02:42:00,
2013-04-20 21:52:00,38.0,-99.9,30.37,ENE,68,5.0,6.0,-999,0.00,,,0.00,,2013-04-21 02:52:00,
2013-04-20 22:02:00,38.0,-99.9,30.38,NE,45,3.0,7.0,-999,0.00,,,0.00,,2013-04-21 03:02:00,
2013-04-20 22:11:00,38.0,-99.9,30.38,NE,45,3.0,7.0,-999,0.00,,,0.00,,2013-04-21 03:11:00,
2013-04-20 22:22:00,38.0,-99.9,30.38,NNE,23,0.0,0.0,-999,0.00,,,0.00,,2013-04-21 03:22:00,
2013-04-20 22:33:00,38.0,-99.9,30.38,NE,45,5.0,8.0,-999,0.00,,,0.00,,2013-04-21 03:33:00,
2013-04-20 22:43:00,38.0,-99.9,30.38,NE,45,5.0,8.0,-999,0.00,,,0.00,,2013-04-21 03:43:00,
2013-04-20 22:53:00,38.0,-99.9,30.38,NNE,23,3.0,7.0,-999,0.00,,,0.00,,2013-04-21 03:53:00,
2013-04-20 23:03:00,38.0,-99.9,30.39,ENE,68,7.0,9.0,-999,0.00,,,0.00,,2013-04-21 04:03:00,
2013-04-20 23:13:00,38.0,-99.9,30.39,East,90,5.0,7.0,-999,0.00,,,0.00,,2013-04-21 04:13:00,
2013-04-20 23:23:00,38.0,-99.9,30.39,East,90,5.0,7.0,-999,0.00,,,0.00,,2013-04-21 04:23:00,
2013-04-20 23:33:00,37.0,-99.9,30.39,NE,45,5.0,7.0,-999,0.00,,,0.00,,2013-04-21 04:33:00,
2013-04-20 23:43:00,37.0,-99.9,30.39,NE,45,5.0,7.0,-999,0.00,,,0.00,,2013-04-21 04:43:00,
2013-04-20 23:53:00,37.0,-99.9,30.39,ENE,68,5.0,7.0,-999,0.00,,,0.00,,2013-04-21 04:53:00,